Regional Weather Roundup
Issued by NWS

Home | Current Version | Previous Version | Text Only | Print | Product List | Glossary Off
Versions: 1 2 3 4 5 6 7 8 9 10 11 12 13 14 15 16 17 18 19 20 21 22 23 24 25 26 27 28 29 30 31 32 33 34 35 36 37 38 39 40 41 42 43 44 45 46 47 48 49 50

000
ASUS45 KTFX 271719
RWRMT
MONTANA HOURLY WEATHER ROUNDUP
NATIONAL WEATHER SERVICE GREAT FALLS MT
1019 AM MST SAT DEC 27 2014

NOTE: "FAIR" INDICATES FEW OR NO CLOUDS BELOW 12000 FEET WITH NO
SIGNIFICANT WEATHER AND/OR OBSTRUCTIONS TO VISIBILITY.

* THESE STATIONS ARE NOT UNDER NWS QUALITY CONTROL. THEY DO NOT
   REPORT WEATHER SUCH AS PRECIPITATION OR FOG.

MTZ001>007-043-271800-
WEST OF THE DIVIDE
CITY           SKY/WX    TMP DP  RH WIND       PRES   REMARKS
KALISPELL      LGT SNOW  27  25  92 SW5       30.10F VSB 3    WCI  21
MISSOULA       CLOUDY    25  21  85 SE3       30.17F
BUTTE          PTSUNNY    9   5  84 W5        30.09S
MULLAN PASS    LGT SNOW  19  16  88 S5        29.99F VSB M1/4 WCI  12
* ESSEX        N/A       22  20  92 N/A        N/A
* HAMILTON APT CLOUDY    27  18  69 S18       30.15F WCI  14
* LIBBY APT    PTCLDY    21  19  92 CALM      30.13F VSB 3
* LINCOLN      N/A       21  17  84 W5G11      N/A   WCI  14
* LOOKOUT PASS N/A       23  20  88 SE2        N/A
* POLSON       N/A       25  24  96 S1         N/A
* RONAN APT    CLOUDY    27  25  92 SW6        N/A   WCI  20
* SEELEY LAKE  N/A       15  12  88 N/A        N/A
* THOMP F APT  CLOUDY    10   5  80 NE4G10     N/A
* YAAK HILL    N/A       27  24  88 N/A        N/A
$$

MTZ008-052>055-271800-
SOUTHWEST MONTANA
CITY           SKY/WX    TMP DP  RH WIND       PRES   REMARKS
BOZEMAN        CLOUDY    16  10  77 CALM      30.15F
DILLON         CLOUDY    18   9  68 SW13      30.13F WCI   5
* W YELLOWSTON PTSUNNY    3  -2  79 N/A        N/A
* THREE FORKS  CLOUDY    12  12 100 N/A        N/A
* BOULDER HILL N/A       15   5  64 SW12       N/A   WCI   1
* MONIDA PASS  N/A        8   5  87 SE11       N/A   WCI  -7
* RAYNOLDS PAS N/A        7  -7  52 S9         N/A   WCI  -6
* WHITEHALL    N/A       20   9  62 SW9G17     N/A   WCI  10
* WISE RIVER   N/A       18   8  65 NW8G14     N/A   WCI   8
$$

MTZ009>010-012-014-046-048-049-054-271800-
EAST SLOPES AND CENTRAL MONTANA
CITY           SKY/WX    TMP DP  RH WIND       PRES   REMARKS
CUT BANK       PTSUNNY   27  16  63 W18       29.93F WCI  14
GREAT FALLS    CLOUDY    25  18  75 SW17      29.99F WCI  12
HELENA         CLOUDY    25  16  69 E10       30.10S WCI  15
MALMSTROM AFB  PTCLDY    27  19  72 SW17      30.03F WCI  14
* CONRAD       PTCLDY    27  19  72 W7         N/A   WCI  19
* DEARBORN     N/A       29  17  61 S3G17      N/A
* EAST GLACIER N/A       23  14  68 W26G35     N/A   WCI   6
* MONARCH      N/A       19  10  68 S13G18     N/A   WCI   6
* PENDROY      N/A       24  12  60 SW2        N/A
* ROGERS PASS  N/A       19  14  81 SE19G28    N/A   WCI   3
* SWEET GRASS  N/A       23  13  65 W14        N/A   WCI  10
* WHITE SULPH  N/A       21  11  65 SW4G18     N/A
$$

MTZ011-013-016-021-035-040-045-047-050-051-271800-
NORTH CENTRAL MONTANA
CITY           SKY/WX    TMP DP  RH WIND       PRES   REMARKS
HAVRE          PTCLDY    25  16  69 SW18      30.00S WCI  11
LEWISTOWN      CLOUDY    23  14  68 W13       29.99F WCI  11
* N BAR RANCH  PTSUNNY   21  14  74 W6        30.00S WCI  13
* CHINOOK      PTCLDY    28  18  66 CALM      30.02R
* CHESTER      N/A       14  10  84 NE1        N/A
* DENTON       N/A       22  14  71 W8         N/A   WCI  13
* GEYSER       N/A       23  12  63 SW13G21    N/A   WCI  11
* JUDITH GAP   N/A       21  14  74 SW12G17    N/A   WCI   9
* LOMA         N/A       23  17  78 W4         N/A
$$

MTZ017>020-022>027-061-062-271800-
NORTHEAST MONTANA
CITY           SKY/WX    TMP DP  RH WIND       PRES   REMARKS
GLASGOW        CLOUDY    19  16  88 SW6       30.03S WCI  11
GLENDIVE       PTSUNNY   23  18  81 SW8       30.04R WCI  14
JORDAN         CLOUDY    21  16  81 W8        30.04R WCI  11
SIDNEY         PTSUNNY   21  18  88 CALM      30.04S
WOLF POINT     CLOUDY    19  16  88 SW10      30.04S WCI   8
* BEAVER HILL  N/A       18  14  84 SW19G24    N/A   WCI   2
* CIRCLE       N/A       21  17  84 W8         N/A   WCI  11
* LINDSAY DVD  N/A       20  13  74 W10G16     N/A   WCI   9
* NAVAJO       N/A       18  12  77 NW16       N/A   WCI   3
* PLENTYWOOD A SUNNY     16  10  77 W8        29.98S WCI   5
* POPLAR APT   PTCLDY    19  16  88 N/A       30.03S
* SACO         N/A       19  16  88 NE4        N/A
$$

MTZ028>042-056>058-271800-
SOUTHCENTRAL AND SOUTHEAST MONTANA
CITY           SKY/WX    TMP DP  RH WIND       PRES   REMARKS
BAKER          PTCLDY    21  14  74 W20       30.03S WCI   6
BILLINGS       CLOUDY    19  12  74 SW16      30.09S WCI   4
LIVINGSTON     CLOUDY    19   7  59 SW32G43   30.06F WCI  -1
MILES CITY     CLOUDY    19  16  88 W8        30.07S WCI   9
* BIG TIMBER A PTSUNNY   21   7  55 W23G35    30.05R WCI   5
* FORSYTH APT  CLOUDY    21  16  81 W8        30.08S WCI  11
* LAUREL APT   CLOUDY    19   9  65 SW8        N/A   WCI   9
* ROUNDUP APT  CLOUDY    18   9  68 N/A        N/A
* ALZADA       N/A       20  13  74 SW1        N/A
* HYSHAM       N/A       18  13  81 W8         N/A   WCI   8
* REED POINT   N/A       14  12  92 E7         N/A   WCI   4
* ROSCOE HILL  N/A       16   0  49 SE7        N/A   WCI   6
$$

REGIONAL REPORTS...DAKOTAS
CITY           SKY/WX    TMP DP  RH WIND       PRES   REMARKS
WILLISTON      CLOUDY    19  16  88 W15       30.01R WCI   5
DICKINSON      PTCLDY    23  16  74 SW18      29.99F WCI   9
BEACH          SUNNY     19  16  88 W15       30.02R WCI   5
CROSBY         SUNNY     19  14  81 W10       29.98S WCI   8
TIOGA          CLOUDY    18  18 100 W15       29.99R WCI   4
WATFORD CITY   PTSUNNY   21  18  88 W13       29.98F WCI   8
BISMARCK       SUNNY     23  16  74 SW6       30.08F WCI  16
GRAND FORKS    LGT SNOW  12   9  88 S10       30.06F VSB 2 1/2 WCI  -1
FARGO          CLOUDY    12   9  88 S10       30.11F WCI  -1
BUFFALO SD     SUNNY     23  16  74 W18       29.99S WCI   9
RAPID CITY     SUNNY     18   9  68 CALM      30.11R
$$

REGIONAL REPORTS...WYOMING/IDAHO/WASHINGTON
CITY           SKY/WX    TMP DP  RH WIND       PRES   REMARKS
GILLETTE       SUNNY     16   9  74 S7        30.05S WCI   6
SHERIDAN       PTCLDY     7   3  83 CALM      30.07R
CODY           CLOUDY    19   7  59 W7        30.04R WCI  10
YELLOWSTONE LA PTSUNNY    7   3  83 VRB5      30.12R WCI  -2
SALMON         PTSUNNY   19   7  59 SW9       30.24F WCI   8
MULLAN PASS    LGT SNOW  19  16  88 S5        29.99S VSB M1/4 WCI  12
SAND POINT     LGT SNOW  32  32 100 S5        30.15S WCI  27
SPOKANE        LGT SNOW  30  28  92 S6        30.13F VSB 3/4  WCI  24
$$

REGIONAL REPORTS...ALBERTA
CITY           SKY/WX    TMP DP  RH WIND       PRES   REMARKS
CALGARY        PTSUNNY   21  12  68 VRB2      29.89S
LETHBRIDGE     PTSUNNY   28  18  66 W15       29.93F WCI  16
MEDICINE HAT   PTSUNNY   25  19  78 SW10      29.95F WCI  15
EDMONTON       PTSUNNY   12   9  88 CALM      29.91R
WATERTON GATE  N/A       27  16  63 SW22G30    N/A   WCI  13
CARDSTON       N/A       28  18  66 W13G20     N/A   WCI  17
MILK RIVER     N/A       19  14  81 NW9        N/A   WCI   8
$$

REGIONAL REPORTS...SASKATCHEWAN
CITY           SKY/WX    TMP DP  RH WIND       PRES   REMARKS
SWIFT CURRENT  LGT SNOW  19  18  96 W8        29.93S VSB 1 1/4 WCI   9
REGINA         LGT SNOW  14  10  84 NW5       29.99R WCI   6
VAL MARIE      N/A       19  16  88 SW8        N/A   WCI   9
ASSINIBOIA     N/A       18  12  77 W5         N/A   WCI  11

$$



USA.gov is the U.S. government's official web portal to all federal, state and local government web resources and services.